[[{"header":{"parameterUnit":"m.s-1","parameterCategory":2,"la1":30.2991,"la2":30.254,"lo1":-89.0895,"lo2":-89.0444,"dy":0.0017,"dx":0.0017,"nx":28,"ny":28,"refTime":"2025-08-01T21:00:00:Z","depth":"0","parameterNumber":2,"parameterNumberName":"U-component_of_CURRENTS"},"data":[0,0,0,0,0,0,0,0,0,0,0,0,0,0,0,0,0,0,0,0,0,0,0,0,0,0,0,0,0,0,0,0,0,0,0,0,0,0,0,0,0,0,0,0,0,0,0,0,0,0,0,0,0,0,0,0,0,0,0.2781,0.2781,0,0.2757,0.2756,0.2755,0.2723,0.2723,0.2723,0.2723,0.2704,0.2704,0.2704,0,0,0,0,0,0,0,0,0,0,0,0,0,0.279,0.279,0.2781,0.2781,0.2781,0.2757,0.2756,0.2755,0.2723,0.2723,0.2723,0.2723,0.2704,0.2704,0.2704,0,0,0,0,0,0,0,0,0,0,0,0,0,0.2775,0.279,0.2781,0.2765,0.2764,0.2757,0.2756,0.2755,0.2723,0.2723,0.2723,0.2723,0.2705,0.2704,0.2704,0.2706,0,0,0.2702,0.2702,0,0,0,0,0,0,0,0,0.2776,0.2774,0.2767,0.2766,0.2765,0.2746,0.2753,0.274,0.2724,0.2735,0.2723,0.2723,0.2722,0.272,0.271,0.2705,0.2704,0.2702,0.2702,0.2702,0.2701,0,0,0,0,0,0,0,0.2777,0.2775,0.2767,0.2768,0.2766,0.2756,0.2753,0.275,0.2727,0.2734,0.2732,0.2736,0.272,0.2711,0.271,0.2704,0.2702,0.2702,0.2701,0.2701,0.2762,0.2764,0,0,0,0,0,0,0.2788,0.2776,0.2768,0.2767,0.2774,0.2757,0.2753,0.2749,0.2727,0.2724,0.2736,0.2735,0.2712,0.271,0.2709,0.2747,0.2702,0.2701,0.2701,0.276,0.2762,0.2764,0,0,0,0,0,0,0.2788,0.2787,0.2769,0.2774,0.2772,0.2757,0.2753,0.2749,0.2741,0.2729,0.2726,0.2732,0.2711,0.271,0.2714,0.2745,0.2701,0.27,0.2758,0.2761,0.2763,0.28,0,0,0,0,0,0,0.2789,0.2787,0.2786,0.2775,0.2772,0.2767,0.2753,0.2749,0.2745,0.2743,0.2725,0.2723,0.2711,0.2715,0.2713,0.2743,0.27,0.2755,0.2759,0.2762,0.2796,0.2803,0.281,0,0,0,0,0,0.2789,0.2787,0.2786,0.2785,0.2771,0.2767,0.2764,0.275,0.2745,0.2741,0.2737,0.2723,0.2737,0.2715,0.2713,0.2744,0.2753,0.2758,0.2762,0.2793,0.2802,0.281,0,0,0,0,0,0,0.279,0.2784,0.2782,0.2778,0.2776,0.2763,0.2759,0.2754,0.2746,0.2745,0.2732,0.273,0.2756,0.2745,0.272,0.2777,0.275,0.2754,0.2775,0.2783,0.279,0.2796,0.27,0,0,0,0,0,0.2792,0.2787,0.2784,0.2782,0.2782,0.2772,0.2769,0.2763,0.2757,0.2752,0.274,0.2746,0.2773,0.2771,0.2783,0.2795,0.2836,0.2821,0.2828,0.2834,0.2841,0.2932,0.2948,0.2778,0.2778,0.2778,0,0,0.2791,0.2789,0.2785,0.2782,0.2777,0.2777,0.2768,0.2766,0.277,0.2754,0.2749,0.2768,0.2785,0.2811,0.2822,0.28,0.2909,0.2839,0.2844,0.2848,0.2939,0.2955,0.297,0.2781,0.2781,0.278,0,0,0.2787,0.2786,0.278,0.2781,0.2782,0.2781,0.2784,0.2774,0.2773,0.2777,0.2789,0.2823,0.2824,0.2854,0.2871,0.2923,0.2951,0.2933,0.2958,0.3047,0.3061,0.3075,0.3169,0.319,0.2926,0.2926,0.2926,0,0.2787,0.2778,0.2779,0.2778,0.278,0.2785,0.2784,0.2789,0.2782,0.2797,0.2781,0.2844,0.2851,0.292,0.2941,0.2939,0.2996,0.292,0.3056,0.307,0.3083,0.3176,0.3199,0.2928,0.2928,0.2928,0.2927,0,0.2779,0.2775,0.2774,0.2774,0.2779,0.2779,0.2793,0.2803,0.2808,0.2819,0.2876,0.2896,0.2935,0.2957,0.296,0.3064,0.308,0.3062,0.3031,0.3102,0.3196,0.3219,0.2931,0.2931,0.293,0.2929,0,0,0.2765,0.2765,0.2764,0.276,0.2776,0.2774,0.2805,0.2833,0.2862,0.2877,0.2921,0.2982,0.3001,0.3025,0.3049,0.3121,0.3267,0.3129,0.3132,0.3217,0.3484,0.35,0.3527,0.3276,0.3279,0.3282,0.352,0,0.2755,0.2745,0.2755,0.2752,0.2746,0.2775,0.2801,0.2836,0.2872,0.2916,0.2975,0.3023,0.3026,0.3055,0.3133,0.3235,0.3328,0.3205,0.3407,0.3414,0.3415,0.3554,0.3463,0.3668,0.3543,0.3547,0.3549,0,0.2739,0.2734,0.2723,0.2735,0.2737,0.2745,0.2798,0.2824,0.2912,0.2946,0.302,0.306,0.3176,0.3157,0.3378,0.3303,0.3403,0.3478,0.3488,0.3504,0.3473,0.3575,0.3715,0.351,0.3585,0.3583,0.358,0,0.2709,0.271,0.2697,0.2698,0.2719,0.2733,0.2756,0.2832,0.2869,0.2973,0.3023,0.3145,0.322,0.3359,0.3508,0.3459,0.3756,0.3701,0.3819,0.3821,0.3784,0.3776,0.3743,0.3876,0.3876,0.3875,0.3874,0,0.2685,0.2671,0.2678,0.2668,0.267,0.2702,0.2732,0.2787,0.2876,0.2939,0.3032,0.3117,0.3277,0.3445,0.3562,0.3786,0.3811,0.387,0.3899,0.3796,0.3787,0.3636,0.3526,0.3884,0.3882,0.388,0.3879,0,0.2643,0.2646,0.2631,0.2647,0.265,0.2653,0.2699,0.2733,0.2832,0.2927,0.2963,0.3139,0.3369,0.3547,0.3799,0.3868,0.395,0.4129,0.4002,0.4012,0.389,0.3788,0.3755,0.366,0.4298,0.43,0.4302,0,0.2614,0.26,0.2604,0.2592,0.2592,0.2601,0.2614,0.2699,0.2751,0.294,0.2992,0.3229,0.3394,0.378,0.3977,0.4233,0.4044,0.4261,0.4142,0.3912,0.382,0.3637,0.3543,0.4122,0.4122,0.4122,0.4122,0,0.2558,0.2562,0.2551,0.2539,0.2536,0.2535,0.2569,0.2608,0.2733,0.2844,0.3015,0.3161,0.354,0.3755,0.4087,0.423,0.4011,0.427,0.4066,0.3725,0.3493,0.3403,0.393,0.4123,0.4123,0.4123,0.4123,0.4123,0.2511,0.2501,0.2493,0.2475,0.2467,0.2467,0.2471,0.2544,0.2637,0.2803,0.2974,0.3182,0.3487,0.3948,0.4075,0.413,0.406,0.4005,0.3924,0.3777,0.3595,0.4133,0.4322,0.4323,0.4324,0.4324,0.4325,0,0.2449,0.2444,0.2427,0.2404,0.2372,0.2394,0.2434,0.2454,0.255,0.2737,0.29,0.3189,0.3433,0.3673,0.3847,0.3745,0.364,0.3619,0.3295,0.3241,0.3768,0.3663,0.3673,0.3673,0.3673,0.3674,0.3674,0.3674,0.2415,0.2384,0.2383,0.2311,0.2292,0.2268,0.2286,0.2339,0.2452,0.2613,0.2752,0.2924,0.3125,0.3282,0.3258,0.3271,0.2973,0.291,0.283,0.312,0.3145,0.3169,0.3041,0.2921,0.292,0.2212,0.2206,0.2202]},{"header":{"parameterUnit":"m.s-1","parameterCategory":2,"la1":30.2991,"la2":30.254,"lo1":-89.0895,"lo2":-89.0444,"dy":0.0017,"dx":0.0017,"nx":28,"ny":28,"refTime":"2025-08-01T21:00:00:Z","depth":"0","parameterNumber":3,"parameterNumberName":"V-component_of_CURRENTS"},"data":[0,0,0,0,0,0,0,0,0,0,0,0,0,0,0,0,0,0,0,0,0,0,0,0,0,0,0,0,0,0,0,0,0,0,0,0,0,0,0,0,0,0,0,0,0,0,0,0,0,0,0,0,0,0,0,0,0,0,-0.0295,-0.0294,0,-0.0279,-0.0279,-0.0279,-0.0297,-0.0297,-0.0298,-0.0299,-0.029,-0.0289,-0.0288,0,0,0,0,0,0,0,0,0,0,0,0,0,-0.0324,-0.0323,-0.0295,-0.0294,-0.0294,-0.0279,-0.0279,-0.0279,-0.0296,-0.0297,-0.0298,-0.0299,-0.0291,-0.0289,-0.0288,0,0,0,0,0,0,0,0,0,0,0,0,0,-0.0309,-0.0323,-0.0295,-0.0302,-0.0303,-0.028,-0.0279,-0.0279,-0.0296,-0.0297,-0.0298,-0.03,-0.0291,-0.029,-0.0288,-0.0257,0,0,-0.0284,-0.0283,0,0,0,0,0,0,0,0,-0.031,-0.0308,-0.0301,-0.0301,-0.0302,-0.0292,-0.0286,-0.0272,-0.0296,-0.0298,-0.0299,-0.03,-0.0291,-0.029,-0.0283,-0.0257,-0.0256,-0.0284,-0.0283,-0.0282,-0.0282,0,0,0,0,0,0,0,-0.0311,-0.0309,-0.0288,-0.0301,-0.0301,-0.0301,-0.03,-0.0284,-0.0288,-0.0298,-0.0299,-0.0299,-0.0292,-0.0284,-0.0283,-0.0256,-0.0284,-0.0283,-0.0282,-0.0281,-0.0193,-0.0192,0,0,0,0,0,0,-0.0314,-0.031,-0.0288,-0.0287,-0.031,-0.03,-0.0299,-0.0293,-0.0288,-0.0288,-0.0298,-0.0299,-0.0286,-0.0285,-0.0283,-0.0228,-0.0282,-0.0281,-0.028,-0.0195,-0.0193,-0.0191,0,0,0,0,0,0,-0.0315,-0.0312,-0.0289,-0.0299,-0.0297,-0.0298,-0.0292,-0.0292,-0.0288,-0.0288,-0.0289,-0.0293,-0.0287,-0.0285,-0.0262,-0.0229,-0.028,-0.0279,-0.0196,-0.0194,-0.0192,-0.0131,0,0,0,0,0,0,-0.0316,-0.0312,-0.0307,-0.0299,-0.0296,-0.0269,-0.0291,-0.0291,-0.0286,-0.0288,-0.0284,-0.0284,-0.0288,-0.0264,-0.0261,-0.0228,-0.0278,-0.0198,-0.0195,-0.0193,-0.0135,-0.0127,-0.012,0,0,0,0,0,-0.0317,-0.0306,-0.0307,-0.0304,-0.0289,-0.0268,-0.0265,-0.0271,-0.0285,-0.0273,-0.0271,-0.0285,-0.0244,-0.0261,-0.0258,-0.0224,-0.02,-0.0196,-0.0193,-0.0138,-0.0128,-0.012,0,0,0,0,0,0,-0.032,-0.0307,-0.0307,-0.0295,-0.0279,-0.0271,-0.0264,-0.0266,-0.0255,-0.026,-0.0265,-0.0264,-0.0231,-0.0235,-0.0255,-0.019,-0.0223,-0.0219,-0.0183,-0.0173,-0.0166,-0.0153,-0.0277,0,0,0,0,0,-0.0317,-0.0304,-0.029,-0.0279,-0.0272,-0.0266,-0.026,-0.0259,-0.025,-0.0247,-0.0243,-0.0234,-0.0211,-0.0201,-0.0187,-0.015,-0.0171,-0.0126,-0.0119,-0.0113,-0.0098,-0.0109,-0.0102,-0.018,-0.018,-0.018,0,0,-0.0316,-0.0307,-0.03,-0.0279,-0.0271,-0.0239,-0.0265,-0.0249,-0.0218,-0.0246,-0.0207,-0.0208,-0.0197,-0.0156,-0.0142,-0.0157,-0.0102,-0.0108,-0.0103,-0.0092,-0.0105,-0.0097,-0.0091,-0.0178,-0.0178,-0.0178,0,0,-0.03,-0.0298,-0.0277,-0.0257,-0.0238,-0.0226,-0.0219,-0.0203,-0.0193,-0.0157,-0.0165,-0.0146,-0.0118,-0.0099,-0.0086,-0.0027,-0.0064,-0.0024,0.0028,0.0018,0.0024,0.0029,0.0005,0.0008,-0.0019,-0.0019,-0.0019,0,-0.0301,-0.0265,-0.0267,-0.0236,-0.0209,-0.0215,-0.0173,-0.0157,-0.0134,-0.0107,-0.0138,-0.0084,-0.0085,-0.0022,-0.0004,-0.0009,-0.0031,-0.0008,0.0026,0.0031,0.0035,0.001,0.0012,-0.0015,-0.0016,-0.0016,-0.0016,0,-0.0262,-0.0228,-0.0214,-0.0169,-0.0143,-0.0109,-0.0083,-0.0053,-0.0047,-0.0028,0.0021,0.0013,0.0044,0.005,0.0041,0.0086,0.0055,0.0033,0.0,0.0047,0.0017,0.0018,-0.0011,-0.0012,-0.0013,-0.0014,0,0,-0.0271,-0.0199,-0.0192,-0.0143,-0.0099,-0.0065,-0.001,0.0054,0.0108,0.0106,0.0167,0.0187,0.0166,0.0178,0.0163,0.0157,0.0159,0.0111,0.0108,0.0082,0.0123,0.0125,0.0125,0.0134,0.0135,0.0136,0.0087,0,-0.0234,-0.0151,-0.0127,-0.0035,0.0019,0.0047,0.011,0.0162,0.0194,0.0248,0.0237,0.0276,0.0219,0.023,0.0216,0.0186,0.0166,0.0174,0.0087,0.0085,0.0077,0.0129,0.0186,0.015,0.0088,0.0088,0.0088,0,-0.0193,-0.0137,-0.0043,0.0067,0.0091,0.0142,0.0254,0.0307,0.0373,0.0392,0.041,0.0394,0.0401,0.0328,0.0278,0.0282,0.0207,0.0164,0.0161,0.0146,0.009,0.0097,0.0154,0.0,0.0089,0.0089,0.0089,0,-0.0169,-0.007,0.0015,0.005,0.0158,0.0213,0.0269,0.0354,0.0421,0.0476,0.0516,0.0504,0.0503,0.0418,0.0323,0.0296,0.0255,0.0202,0.0129,0.0127,0.0153,0.0153,0.0052,0.015,0.015,0.0151,0.0151,0,-0.0117,-0.0048,0.0035,0.0086,0.0201,0.0253,0.0373,0.043,0.0512,0.0603,0.0579,0.0635,0.0523,0.0485,0.0367,0.0268,0.028,0.0155,0.0126,0.0176,0.0178,0.0027,-0.0073,0.0149,0.0149,0.0149,0.015,0,-0.0079,-0.0034,0.0073,0.0182,0.0221,0.0303,0.0433,0.0523,0.0581,0.0693,0.0708,0.0735,0.07,0.0585,0.0468,0.0342,0.0168,0.0186,0.0249,0.0229,0.0011,-0.0086,-0.0189,-0.0233,0.0097,0.0097,0.0097,0,-0.0044,0.0014,0.0135,0.0201,0.0256,0.0371,0.0461,0.0548,0.064,0.0764,0.0823,0.0832,0.0876,0.0717,0.0524,0.034,0.0184,0.0222,0.0183,0.0026,-0.0105,-0.0161,-0.0194,0.0231,0.0232,0.0233,0.0234,0,0.0036,0.0068,0.0156,0.0273,0.0371,0.0493,0.0615,0.0696,0.0805,0.0905,0.1025,0.1074,0.096,0.0858,0.0616,0.0455,0.0145,0.0232,0.0063,-0.0003,-0.0061,-0.0124,0.0214,0.0242,0.0241,0.024,0.024,0.0239,0.0095,0.0163,0.0259,0.0376,0.048,0.0613,0.0719,0.0849,0.1003,0.1185,0.1195,0.1335,0.1155,0.0871,0.0623,0.0212,0.0184,0.0073,-0.0032,-0.0074,-0.0108,0.0244,0.0243,0.0242,0.0242,0.0241,0.024,0,0.0182,0.0253,0.0361,0.0498,0.0612,0.0654,0.0829,0.0939,0.1126,0.133,0.1459,0.1509,0.1253,0.0911,0.0374,0.0024,-0.0089,-0.0181,-0.0254,-0.0277,0.0037,0.0051,0.0019,0.0019,0.0019,0.0019,0.0019,0.0019,0.0238,0.035,0.0399,0.059,0.0683,0.084,0.0943,0.1103,0.1273,0.154,0.1698,0.1802,0.1532,0.0577,-0.011,-0.0272,-0.0517,-0.0554,-0.0696,-0.051,-0.0495,-0.048,-0.049,-0.0635,-0.0636,-0.0917,-0.0921,-0.0923]}],[{"header":{"parameterUnit":"m.s-1","parameterCategory":2,"la1":30.2991,"la2":30.254,"lo1":-89.0895,"lo2":-89.0444,"dy":0.0017,"dx":0.0017,"nx":28,"ny":28,"refTime":"2025-08-01T21:00:00:Z","depth":"2","parameterNumber":2,"parameterNumberName":"U-component_of_CURRENTS"},"data":[0,0,0,0,0,0,0,0,0,0,0,0,0,0,0,0,0,0,0,0,0,0,0,0,0,0,0,0,0,0,0,0,0,0,0,0,0,0,0,0,0,0,0,0,0,0,0,0,0,0,0,0,0,0,0,0,0,0,0.2389,0.239,0,0.2434,0.2434,0.2434,0.2445,0.2445,0.2445,0.2445,0.2477,0.2478,0.2479,0,0,0,0,0,0,0,0,0,0,0,0,0,0.234,0.234,0.2389,0.239,0.2391,0.2434,0.2434,0.2435,0.2445,0.2445,0.2445,0.2445,0.2477,0.2478,0.2479,0,0,0,0,0,0,0,0,0,0,0,0,0,0.2368,0.234,0.2389,0.2403,0.2404,0.2434,0.2434,0.2435,0.2445,0.2445,0.2445,0.2445,0.2476,0.2478,0.2479,0.2491,0,0,0.2483,0.2484,0,0,0,0,0,0,0,0,0.2367,0.237,0.24,0.2402,0.2404,0.2436,0.2429,0.2454,0.2445,0.2428,0.2445,0.2445,0.2463,0.2466,0.2472,0.2492,0.2494,0.2483,0.2484,0.2485,0.2485,0,0,0,0,0,0,0,0.2365,0.2368,0.2405,0.2401,0.2403,0.2416,0.2419,0.2433,0.2444,0.2429,0.2431,0.2439,0.2464,0.247,0.2473,0.2494,0.2483,0.2485,0.2486,0.2486,0.259,0.2592,0,0,0,0,0,0,0.2362,0.2366,0.2403,0.2406,0.2387,0.2417,0.2421,0.2424,0.2444,0.2448,0.2439,0.2439,0.2468,0.2471,0.2474,0.2538,0.2485,0.2486,0.2487,0.2589,0.2591,0.2593,0,0,0,0,0,0,0.2361,0.2365,0.2401,0.2389,0.2395,0.2418,0.2422,0.2425,0.2445,0.2452,0.2455,0.2457,0.2468,0.2472,0.2509,0.2537,0.2487,0.2488,0.2586,0.2589,0.2592,0.2634,0,0,0,0,0,0,0.2359,0.2364,0.2374,0.2389,0.2396,0.2427,0.2422,0.2426,0.2451,0.2452,0.2469,0.2471,0.2468,0.2507,0.2511,0.2538,0.2489,0.2584,0.2588,0.2591,0.263,0.2638,0.2645,0,0,0,0,0,0.2357,0.2367,0.2374,0.238,0.2406,0.2428,0.2433,0.2447,0.2452,0.2464,0.2485,0.2471,0.2533,0.251,0.2514,0.2542,0.2582,0.2587,0.2591,0.2627,0.2636,0.2644,0,0,0,0,0,0,0.2354,0.2369,0.2378,0.2393,0.2415,0.2431,0.2447,0.2458,0.2484,0.2488,0.2493,0.2497,0.254,0.2541,0.2516,0.2585,0.2556,0.2561,0.2583,0.2592,0.2599,0.26,0.249,0,0,0,0,0,0.2358,0.2368,0.2388,0.2404,0.2415,0.2435,0.245,0.246,0.2481,0.2492,0.2503,0.2526,0.2559,0.2575,0.2593,0.263,0.2659,0.2654,0.2661,0.2667,0.2672,0.2764,0.278,0.2607,0.2607,0.2607,0,0,0.2361,0.2373,0.2379,0.2404,0.2422,0.2444,0.2444,0.2469,0.249,0.2492,0.2526,0.2549,0.2575,0.2618,0.2637,0.2623,0.273,0.2672,0.2677,0.2679,0.277,0.2787,0.2802,0.261,0.2609,0.2609,0,0,0.2368,0.2384,0.2394,0.2413,0.2443,0.2459,0.247,0.2493,0.2508,0.2544,0.256,0.2606,0.2636,0.267,0.2691,0.2753,0.2764,0.2757,0.2795,0.2885,0.29,0.2913,0.2964,0.2982,0.2763,0.2763,0.2763,0,0.2373,0.2388,0.2403,0.2421,0.2439,0.2468,0.2487,0.2512,0.2544,0.2573,0.2559,0.2653,0.2664,0.2748,0.2764,0.2769,0.2811,0.2756,0.2894,0.2908,0.2921,0.2971,0.299,0.2765,0.2765,0.2765,0.2764,0,0.2385,0.2404,0.2415,0.2446,0.2468,0.2491,0.2523,0.2556,0.2579,0.261,0.2686,0.2716,0.2776,0.279,0.2791,0.2896,0.2892,0.2891,0.2869,0.2941,0.2989,0.3008,0.2769,0.2768,0.2767,0.2767,0,0,0.237,0.2413,0.2417,0.2434,0.2481,0.2496,0.2549,0.2607,0.2653,0.2697,0.2761,0.2827,0.2856,0.2882,0.2904,0.2972,0.3088,0.297,0.2973,0.3015,0.3273,0.309,0.3093,0.312,0.3124,0.3127,0.3265,0,0.2376,0.2404,0.2428,0.2464,0.2482,0.2529,0.2575,0.2635,0.2685,0.2753,0.2823,0.2883,0.2889,0.2918,0.2999,0.3068,0.3142,0.3049,0.3201,0.3205,0.303,0.311,0.2769,0.2848,0.3284,0.3287,0.3289,0,0.2372,0.2394,0.2421,0.2474,0.2487,0.2515,0.2597,0.2641,0.2755,0.2799,0.2896,0.294,0.3058,0.3034,0.3223,0.3169,0.3226,0.3272,0.3279,0.3105,0.3058,0.285,0.2867,0.3321,0.3319,0.3316,0.3314,0,0.2338,0.2386,0.2406,0.2422,0.249,0.2517,0.2559,0.2659,0.2707,0.2829,0.2886,0.3028,0.3101,0.3217,0.3312,0.3284,0.3501,0.3474,0.337,0.3357,0.3091,0.3047,0.361,0.361,0.361,0.3609,0.3609,0,0.2325,0.234,0.239,0.24,0.2434,0.2489,0.254,0.2613,0.272,0.2797,0.2905,0.2991,0.3155,0.3286,0.3358,0.3423,0.3554,0.3388,0.3389,0.3092,0.3048,0.3473,0.3456,0.3614,0.3613,0.3612,0.3611,0,0.2279,0.2314,0.2337,0.2398,0.2414,0.2434,0.2507,0.2554,0.267,0.2774,0.2815,0.3004,0.3168,0.3308,0.3495,0.346,0.3542,0.3532,0.3146,0.3096,0.3324,0.3308,0.342,0.3414,0.341,0.3406,0.3403,0,0.2258,0.2266,0.2313,0.2319,0.2341,0.2376,0.2406,0.2513,0.2571,0.2775,0.283,0.3015,0.3119,0.3306,0.3234,0.3292,0.3507,0.3047,0.2908,0.3319,0.3311,0.33,0.329,0.2588,0.2579,0.2571,0.2565,0,0.2219,0.2236,0.2254,0.2265,0.2282,0.2299,0.2355,0.2393,0.2541,0.2633,0.2786,0.2877,0.2967,0.2845,0.2875,0.287,0.2994,0.2884,0.3471,0.266,0.2538,0.2528,0.2546,0.2496,0.2503,0.2508,0.2512,0.2515,0.2185,0.2184,0.2205,0.2206,0.2216,0.2219,0.2212,0.2285,0.2351,0.2407,0.2584,0.2589,0.2542,0.2359,0.2345,0.2328,0.2507,0.2449,0.2473,0.2505,0.2355,0.2228,0.21,0.2105,0.2108,0.2112,0.2115,0,0.2137,0.2143,0.2144,0.2132,0.2098,0.2141,0.2174,0.2143,0.2171,0.2165,0.2197,0.1924,0.1816,0.1915,0.1692,0.1653,0.1641,0.1703,0.1678,0.1742,0.18,0.1617,0.1166,0.1165,0.1164,0.1162,0,0,0.2114,0.2095,0.2092,0.2015,0.2004,0.1945,0.1945,0.191,0.1886,0.1721,0.1621,0.1572,0.1715,0.1345,0.1295,0.1244,0.1504,0.1197,0.193,0.1957,0.2014,0.2171,0.1951,0,0,0,0,0]},{"header":{"parameterUnit":"m.s-1","parameterCategory":2,"la1":30.2991,"la2":30.254,"lo1":-89.0895,"lo2":-89.0444,"dy":0.0017,"dx":0.0017,"nx":28,"ny":28,"refTime":"2025-08-01T21:00:00:Z","depth":"2","parameterNumber":3,"parameterNumberName":"V-component_of_CURRENTS"},"data":[0,0,0,0,0,0,0,0,0,0,0,0,0,0,0,0,0,0,0,0,0,0,0,0,0,0,0,0,0,0,0,0,0,0,0,0,0,0,0,0,0,0,0,0,0,0,0,0,0,0,0,0,0,0,0,0,0,0,0.0089,0.0089,0,0.0005,0.0004,0.0003,-0.0066,-0.0067,-0.0067,-0.0068,-0.0163,-0.0164,-0.0166,0,0,0,0,0,0,0,0,0,0,0,0,0,0.0154,0.0154,0.009,0.0089,0.0088,0.0005,0.0004,0.0003,-0.0066,-0.0067,-0.0067,-0.0068,-0.0162,-0.0164,-0.0167,0,0,0,0,0,0,0,0,0,0,0,0,0,0.0103,0.0153,0.009,0.0044,0.0039,0.0006,0.0004,0.0003,-0.0066,-0.0067,-0.0068,-0.0069,-0.0161,-0.0164,-0.0167,-0.0165,0,0,-0.0176,-0.0177,0,0,0,0,0,0,0,0,0.0106,0.0101,0.0052,0.0047,0.0041,-0.002,-0.0008,-0.0054,-0.0065,-0.0027,-0.0068,-0.0069,-0.0115,-0.0121,-0.0136,-0.0169,-0.0173,-0.0176,-0.0178,-0.0179,-0.018,0,0,0,0,0,0,0,0.011,0.0104,0.0055,0.0051,0.0044,0.0015,0.0007,-0.0017,-0.0065,-0.003,-0.0035,-0.0043,-0.0118,-0.0133,-0.0139,-0.0175,-0.0176,-0.0178,-0.018,-0.0181,-0.0197,-0.0196,0,0,0,0,0,0,0.0125,0.0107,0.0058,0.0053,0.0073,0.0015,0.0006,-0.0,-0.0065,-0.0075,-0.0042,-0.0046,-0.0128,-0.0135,-0.0142,-0.0108,-0.0179,-0.0181,-0.0183,-0.0199,-0.0197,-0.0196,0,0,0,0,0,0,0.0126,0.0121,0.0061,0.0079,0.0069,0.0015,0.0009,-0.0001,-0.0011,-0.0073,-0.0085,-0.0041,-0.0129,-0.0138,-0.0154,-0.0114,-0.0183,-0.0185,-0.02,-0.0198,-0.0196,-0.0063,0,0,0,0,0,0,0.0129,0.0123,0.0127,0.008,0.0069,0.0061,0.001,-0.0002,-0.0015,-0.0021,-0.0076,-0.0087,-0.013,-0.0149,-0.0156,-0.0119,-0.0188,-0.0202,-0.0199,-0.0197,-0.0069,-0.0056,-0.0046,0,0,0,0,0,0.0131,0.0146,0.0128,0.0122,0.0076,0.0063,0.0055,0.0012,-0.0013,-0.0003,-0.0047,-0.0085,-0.0139,-0.015,-0.0159,-0.0122,-0.0203,-0.02,-0.0197,-0.0074,-0.0059,-0.0046,0,0,0,0,0,0,0.0176,0.0139,0.0118,0.012,0.0102,0.0052,0.0052,0.0026,-0.0002,-0.0011,-0.0071,-0.0083,-0.0082,-0.0121,-0.0132,-0.0121,-0.0176,-0.0175,-0.0079,-0.0065,-0.0054,-0.0036,-0.019,0,0,0,0,0,0.019,0.0188,0.0153,0.0155,0.0149,0.0104,0.0093,0.0068,0.0034,0.0021,-0.0017,-0.0056,-0.0077,-0.0087,-0.0118,-0.0108,-0.0153,-0.0091,-0.0079,-0.0069,-0.0061,-0.0099,-0.009,-0.0186,-0.0186,-0.0186,0,0,0.0207,0.0186,0.0184,0.0165,0.0141,0.0154,0.0095,0.0088,0.0101,0.0016,0.0022,-0.0018,-0.0068,-0.0061,-0.0063,-0.0087,-0.0062,-0.0065,-0.0056,-0.0054,-0.0095,-0.0086,-0.0077,-0.0184,-0.0185,-0.0185,0,0,0.0247,0.0224,0.024,0.0234,0.0213,0.0192,0.0199,0.0164,0.015,0.0149,0.0094,0.008,0.0043,0.0022,0.0005,0.0062,-0.0004,0.0054,0.0132,0.0097,0.0105,0.0111,0.0081,0.0084,0.0065,0.0065,0.0065,0,0.0268,0.0282,0.0246,0.0266,0.027,0.022,0.0252,0.0237,0.0203,0.0204,0.0168,0.0125,0.0086,0.0099,0.0118,0.0091,0.0055,0.0088,0.0113,0.0118,0.0122,0.009,0.0091,0.0072,0.0071,0.007,0.007,0,0.0324,0.0338,0.0349,0.0359,0.0366,0.0381,0.0363,0.0365,0.034,0.0324,0.0323,0.0263,0.0239,0.0231,0.0192,0.0213,0.0174,0.013,0.0082,0.014,0.0102,0.0101,0.0081,0.0079,0.0077,0.0075,0,0,0.036,0.0384,0.0386,0.0411,0.0416,0.0427,0.0458,0.0472,0.0494,0.0459,0.0482,0.0447,0.0408,0.0385,0.0335,0.0309,0.0313,0.0242,0.0237,0.0221,0.0237,0.0212,0.0207,0.0269,0.0269,0.0269,0.0205,0,0.0412,0.0467,0.047,0.0534,0.0565,0.0548,0.0586,0.0593,0.0582,0.0593,0.0539,0.0533,0.047,0.0456,0.0428,0.0341,0.0312,0.0334,0.0176,0.0171,0.0148,0.0206,0.0155,0.0093,0.0203,0.0202,0.0202,0,0.0467,0.0496,0.0564,0.0621,0.0634,0.067,0.0713,0.0741,0.0746,0.0736,0.0721,0.0667,0.0643,0.0561,0.0459,0.0474,0.0371,0.0293,0.0288,0.0215,0.0144,0.0048,0.0085,0.0199,0.0199,0.0199,0.0199,0,0.0503,0.0566,0.0621,0.0639,0.0695,0.0726,0.0757,0.0783,0.0815,0.082,0.0835,0.0786,0.0758,0.0639,0.0492,0.047,0.0361,0.0304,0.0183,0.0179,0.0081,0.0069,0.0215,0.0215,0.0216,0.0216,0.0216,0,0.0558,0.0602,0.064,0.0669,0.0745,0.0773,0.0848,0.0868,0.0906,0.0962,0.0909,0.093,0.0772,0.0689,0.0537,0.0376,0.0394,0.0211,0.0167,0.0128,0.0121,0.0159,0.0153,0.0213,0.0214,0.0214,0.0215,0,0.0592,0.0614,0.0678,0.0738,0.0762,0.0815,0.0898,0.0953,0.0986,0.1051,0.1055,0.1034,0.0943,0.0775,0.0586,0.0441,0.0277,0.0201,0.0175,0.013,0.0105,0.0107,0.007,0.0068,0.0067,0.0066,0.0066,0,0.0617,0.065,0.0715,0.0752,0.078,0.0857,0.0916,0.0977,0.1039,0.112,0.1158,0.1105,0.1087,0.0829,0.0536,0.0275,0.0271,0.007,0.0017,0.0133,0.0093,0.0097,0.01,-0.0063,-0.0064,-0.0066,-0.0067,0,0.0661,0.0672,0.072,0.0786,0.0849,0.0937,0.1024,0.1086,0.1173,0.1247,0.1338,0.1334,0.1081,0.0796,0.0437,0.0263,0.0113,0.0033,0.0154,-0.0007,0.0005,-0.0033,-0.0025,-0.008,-0.0079,-0.0078,-0.0077,-0.0076,0.0682,0.0717,0.0762,0.0833,0.0905,0.1011,0.1088,0.1202,0.1329,0.14,0.1412,0.1358,0.1007,0.0504,0.026,0.0011,0.0017,-0.0107,-0.0102,-0.0096,-0.0089,-0.0077,-0.0177,-0.0176,-0.0176,-0.0175,-0.0175,0,0.0709,0.0744,0.0808,0.0893,0.0972,0.1009,0.1157,0.1252,0.1415,0.1399,0.1438,0.1074,0.0759,0.0456,0.0034,-0.0206,-0.021,-0.0233,-0.0222,-0.0211,-0.02,-0.0197,-0.0315,-0.0315,-0.0315,-0.0316,0,0,0.0726,0.0777,0.0812,0.0932,0.0992,0.1106,0.1192,0.1358,0.1401,0.1388,0.1271,0.1052,0.0714,0.0351,0.0044,-0.0119,-0.009,-0.0136,-0.0017,0.0039,0.0054,-0.014,-0.0124,0,0,0,0,0]}],[{"header":{"parameterUnit":"m.s-1","parameterCategory":2,"la1":30.2991,"la2":30.254,"lo1":-89.0895,"lo2":-89.0444,"dy":0.0017,"dx":0.0017,"nx":28,"ny":28,"refTime":"2025-08-01T21:00:00:Z","depth":"4","parameterNumber":2,"parameterNumberName":"U-component_of_CURRENTS"},"data":[0,0,0,0,0,0,0,0,0,0,0,0,0,0,0,0,0,0,0,0,0,0,0,0,0,0,0,0,0,0,0,0,0,0,0,0,0,0,0,0,0,0,0,0,0,0,0,0,0,0,0,0,0,0,0,0,0,0,0.031,0.0311,0,0.048,0.0482,0.0485,0.0597,0.0598,0.0598,0.0599,0.073,0.0733,0.0735,0,0,0,0,0,0,0,0,0,0,0,0,0,0.0217,0.0218,0.0309,0.0311,0.0313,0.048,0.0482,0.0485,0.0597,0.0598,0.0599,0.0599,0.0729,0.0732,0.0736,0,0,0,0,0,0,0,0,0,0,0,0,0,0.0311,0.0218,0.0309,0.0388,0.0397,0.0479,0.0483,0.0486,0.0597,0.0598,0.0599,0.06,0.0728,0.0732,0.0736,0.0747,0,0,0.075,0.0752,0,0,0,0,0,0,0,0,0.0305,0.0315,0.0374,0.0383,0.0392,0.0517,0.0498,0.057,0.0597,0.0523,0.0599,0.06,0.0653,0.0663,0.0697,0.0753,0.0759,0.075,0.0753,0.0755,0.0756,0,0,0,0,0,0,0,0.0299,0.0309,0.0379,0.0376,0.0387,0.0461,0.0475,0.0513,0.0582,0.053,0.0538,0.0553,0.0658,0.0693,0.0701,0.0761,0.075,0.0754,0.0757,0.0759,0.0993,0.0996,0,0,0,0,0,0,0.0265,0.0301,0.0374,0.0384,0.0348,0.0462,0.0477,0.0478,0.0583,0.0599,0.0552,0.0558,0.0685,0.0696,0.0706,0.0859,0.0755,0.0759,0.0762,0.0989,0.0994,0.0997,0,0,0,0,0,0,0.0262,0.0269,0.0367,0.0346,0.0364,0.0461,0.0462,0.048,0.055,0.06,0.0616,0.0606,0.0686,0.07,0.0794,0.086,0.0761,0.0765,0.0985,0.0991,0.0996,0.1079,0,0,0,0,0,0,0.0259,0.0267,0.03,0.0343,0.0363,0.0431,0.0462,0.0483,0.0555,0.0565,0.0651,0.0662,0.0687,0.0787,0.0798,0.0864,0.0768,0.0981,0.0988,0.0994,0.1072,0.1087,0.1099,0,0,0,0,0,0.0255,0.0266,0.03,0.0311,0.039,0.0431,0.045,0.0524,0.0557,0.059,0.067,0.0661,0.0838,0.0794,0.0806,0.0874,0.0977,0.0986,0.0993,0.1066,0.1084,0.1099,0,0,0,0,0,0,0.0247,0.028,0.0317,0.0343,0.0397,0.045,0.0504,0.054,0.063,0.0659,0.0701,0.0719,0.0823,0.084,0.079,0.0965,0.0908,0.0919,0.0959,0.0977,0.099,0.0997,0.0772,0,0,0,0,0,0.0258,0.0281,0.0323,0.0356,0.0382,0.0452,0.0495,0.0536,0.0601,0.0644,0.0714,0.0793,0.086,0.0911,0.0965,0.1058,0.1019,0.1114,0.1127,0.1139,0.1156,0.115,0.1163,0.1024,0.1024,0.1024,0,0,0.027,0.0292,0.0312,0.0359,0.0415,0.0461,0.0481,0.0545,0.0614,0.0641,0.0783,0.0834,0.0892,0.1004,0.1053,0.1033,0.1155,0.1149,0.1158,0.1169,0.116,0.1173,0.1184,0.1029,0.1028,0.1027,0,0,0.0284,0.0321,0.0348,0.0391,0.0464,0.0498,0.0516,0.0598,0.0675,0.0796,0.0836,0.0926,0.1054,0.1104,0.1143,0.1261,0.1216,0.1299,0.139,0.1385,0.1395,0.1403,0.1343,0.1345,0.132,0.132,0.132,0,0.0312,0.0343,0.0368,0.0408,0.0462,0.051,0.0563,0.0636,0.0752,0.0828,0.0858,0.1057,0.1098,0.1212,0.1283,0.1289,0.127,0.1316,0.1398,0.1406,0.1413,0.1349,0.1351,0.1325,0.1325,0.1324,0.1324,0,0.034,0.0391,0.0411,0.0478,0.0529,0.0583,0.0661,0.0753,0.0853,0.0931,0.1093,0.1168,0.1294,0.1322,0.1357,0.1454,0.1414,0.1395,0.1342,0.1431,0.1359,0.1359,0.1332,0.1331,0.1329,0.1328,0,0,0.0343,0.0419,0.0438,0.0496,0.0579,0.062,0.0735,0.0854,0.0953,0.1089,0.122,0.1367,0.1428,0.1477,0.1517,0.1535,0.1566,0.1525,0.1522,0.1441,0.1532,0.1363,0.1346,0.1574,0.1576,0.1577,0.1447,0,0.0382,0.0456,0.049,0.0596,0.0648,0.0731,0.0829,0.0944,0.1069,0.1205,0.1303,0.1448,0.148,0.1572,0.1597,0.1579,0.1579,0.1601,0.148,0.1475,0.1295,0.1345,0.1582,0.1447,0.1447,0.1446,0.1446,0,0.041,0.046,0.0563,0.0673,0.0708,0.0806,0.0979,0.1079,0.1244,0.1346,0.1491,0.1558,0.1664,0.166,0.1664,0.169,0.1643,0.1594,0.1587,0.1405,0.1309,0.1351,0.1445,0.1446,0.1446,0.1446,0.1446,0,0.0395,0.0515,0.0607,0.0651,0.0775,0.09,0.1011,0.1173,0.1266,0.1481,0.1544,0.1665,0.1732,0.172,0.1641,0.1695,0.1548,0.159,0.1369,0.1353,0.1502,0.1494,0.1564,0.1564,0.1564,0.1565,0.1565,0,0.0409,0.0482,0.0649,0.0698,0.0865,0.0964,0.1155,0.128,0.1428,0.1482,0.1657,0.1648,0.1761,0.168,0.163,0.1458,0.1535,0.1383,0.1321,0.1537,0.1536,0.1498,0.1492,0.156,0.1561,0.1562,0.1563,0,0.0379,0.0465,0.0571,0.0761,0.0864,0.1008,0.1245,0.1332,0.1498,0.1565,0.1634,0.1672,0.1576,0.1552,0.1462,0.141,0.1275,0.1176,0.1343,0.1291,0.1101,0.1102,0.1006,0.0999,0.0993,0.0989,0.0985,0,0.037,0.0423,0.0628,0.0732,0.0864,0.1095,0.1214,0.1395,0.1429,0.1485,0.1441,0.1434,0.1421,0.1149,0.1145,0.1026,0.1003,0.0971,0.1144,0.1101,0.1051,0.106,0.1069,0.0976,0.0974,0.0973,0.0971,0,0.0336,0.0412,0.0496,0.0709,0.0886,0.1024,0.1202,0.1198,0.1295,0.1427,0.1274,0.1234,0.1077,0.1006,0.0905,0.0809,0.1045,0.0913,0.0929,0.1092,0.1063,0.1021,0.1036,0.0951,0.0954,0.0956,0.0957,0,0.0327,0.0363,0.0473,0.0668,0.0859,0.0921,0.1012,0.1026,0.1073,0.1123,0.1011,0.0965,0.0995,0.0871,0.0722,0.0676,0.0732,0.0791,0.0815,0.0837,0.0843,0.0785,0.0532,0,0,0,0,0,0.0318,0.0326,0.0438,0.0589,0.0759,0.0869,0.0963,0.0998,0.1046,0.0921,0.0992,0.0835,0.0728,0.0666,0.0587,0.0625,0.071,0.0532,0.0785,0.0841,0.0864,0.0888,0,0,0,0,0,0,0.03,0.0366,0.0372,0.0493,0.0603,0.073,0.0784,0.0794,0.0719,0.0786,0.0703,0.0822,0.0684,0.077,0.0585,0.0576,0.0726,0.0532,0.053,0.0828,0.0849,0.0867,0.09,0,0,0,0,0]},{"header":{"parameterUnit":"m.s-1","parameterCategory":2,"la1":30.2991,"la2":30.254,"lo1":-89.0895,"lo2":-89.0444,"dy":0.0017,"dx":0.0017,"nx":28,"ny":28,"refTime":"2025-08-01T21:00:00:Z","depth":"4","parameterNumber":3,"parameterNumberName":"V-component_of_CURRENTS"},"data":[0,0,0,0,0,0,0,0,0,0,0,0,0,0,0,0,0,0,0,0,0,0,0,0,0,0,0,0,0,0,0,0,0,0,0,0,0,0,0,0,0,0,0,0,0,0,0,0,0,0,0,0,0,0,0,0,0,0,0.0332,0.0332,0,0.0305,0.0304,0.0304,0.0309,0.0309,0.031,0.031,0.0203,0.02,0.0196,0,0,0,0,0,0,0,0,0,0,0,0,0,0.0365,0.0364,0.0332,0.0332,0.0332,0.0305,0.0304,0.0304,0.0308,0.0309,0.031,0.031,0.0204,0.02,0.0196,0,0,0,0,0,0,0,0,0,0,0,0,0,0.0345,0.0364,0.0332,0.0331,0.0331,0.0305,0.0304,0.0304,0.0308,0.0309,0.031,0.0311,0.0205,0.02,0.0195,0.0149,0,0,0.018,0.0178,0,0,0,0,0,0,0,0,0.0346,0.0344,0.0332,0.0331,0.0331,0.0311,0.0277,0.0248,0.0308,0.0316,0.031,0.0311,0.0231,0.0224,0.0218,0.0144,0.0139,0.018,0.0177,0.0175,0.0173,0,0,0,0,0,0,0,0.0347,0.0345,0.0321,0.0331,0.0331,0.0324,0.0322,0.0271,0.0268,0.0316,0.0316,0.0313,0.0231,0.0223,0.0215,0.0138,0.018,0.0175,0.0172,0.017,-0.0039,-0.0042,0,0,0,0,0,0,0.0352,0.0346,0.0322,0.032,0.0341,0.0322,0.032,0.0316,0.027,0.0265,0.0313,0.0314,0.0231,0.0221,0.0211,0.012,0.0175,0.017,0.0167,-0.0037,-0.004,-0.0043,0,0,0,0,0,0,0.0353,0.035,0.0323,0.0333,0.0329,0.0321,0.0317,0.0315,0.0314,0.0269,0.0262,0.0313,0.0231,0.0218,0.0153,0.0118,0.0168,0.0163,-0.0034,-0.0038,-0.0041,-0.0041,0,0,0,0,0,0,0.0354,0.035,0.0369,0.0333,0.0329,0.0304,0.0316,0.0314,0.0311,0.0312,0.0266,0.0257,0.0231,0.016,0.0148,0.0112,0.0159,-0.003,-0.0035,-0.004,-0.0037,-0.0044,-0.005,0,0,0,0,0,0.0355,0.0362,0.037,0.0368,0.0348,0.0303,0.03,0.0297,0.031,0.0301,0.0263,0.0259,0.012,0.0154,0.014,0.0102,-0.0028,-0.0034,-0.004,-0.0035,-0.0043,-0.005,0,0,0,0,0,0,0.038,0.0362,0.037,0.0373,0.0343,0.0305,0.0306,0.0298,0.0265,0.0268,0.0231,0.0217,0.0143,0.0116,0.0155,0.0023,0.0043,0.0034,0.0051,0.0043,0.0037,0.0066,0.0155,0,0,0,0,0,0.0397,0.0403,0.037,0.0373,0.036,0.0335,0.0327,0.0314,0.0273,0.0263,0.0224,0.0171,0.0105,0.0074,0.0016,-0.005,-0.0055,-0.0089,-0.0095,-0.01,-0.009,-0.0137,-0.0145,-0.0061,-0.0061,-0.0061,0,0,0.0404,0.04,0.0403,0.0381,0.0362,0.0329,0.0331,0.0306,0.0279,0.0251,0.0203,0.015,0.0081,0.0003,-0.0033,-0.002,-0.0128,-0.0107,-0.011,-0.0098,-0.0144,-0.0151,-0.0158,-0.0065,-0.0065,-0.0064,0,0,0.0405,0.0417,0.0416,0.0389,0.0363,0.0338,0.033,0.0283,0.0268,0.0205,0.0172,0.0105,0.0012,-0.0042,-0.0082,-0.0159,-0.0159,-0.0189,-0.0194,-0.0241,-0.0246,-0.0252,-0.0259,-0.0265,-0.0191,-0.0191,-0.0191,0,0.0423,0.0414,0.0405,0.0384,0.0366,0.0338,0.0309,0.028,0.0217,0.0195,0.0187,0.0044,-0.0009,-0.0104,-0.0137,-0.0169,-0.0182,-0.0153,-0.0244,-0.0249,-0.0255,-0.0261,-0.0268,-0.0191,-0.0191,-0.0191,-0.0191,0,0.0399,0.0402,0.039,0.0363,0.0337,0.0305,0.0257,0.0226,0.0202,0.0169,0.008,0.0003,-0.0073,-0.0121,-0.0154,-0.0235,-0.0226,-0.0242,-0.0211,-0.0262,-0.0267,-0.0273,-0.0192,-0.0192,-0.0192,-0.0192,0,0,0.0417,0.0386,0.0387,0.0377,0.0325,0.0296,0.0247,0.0193,0.017,0.0099,0.0054,-0.0069,-0.009,-0.0139,-0.0194,-0.0246,-0.03,-0.026,-0.0262,-0.024,-0.0376,-0.0332,-0.0335,-0.033,-0.0332,-0.0333,-0.0358,0,0.0407,0.0387,0.0362,0.0327,0.0307,0.0264,0.0222,0.0171,0.0128,0.0075,-0.0002,-0.0059,-0.0103,-0.0134,-0.0201,-0.028,-0.032,-0.0289,-0.0352,-0.0353,-0.0287,-0.0343,-0.0338,-0.0363,-0.0365,-0.0366,-0.0367,0,0.0389,0.0385,0.0367,0.0325,0.0311,0.0292,0.0236,0.0195,0.0119,0.0085,0.0018,-0.0035,-0.0126,-0.0148,-0.0281,-0.026,-0.0313,-0.0366,-0.0369,-0.0329,-0.0323,-0.0309,-0.0379,-0.0378,-0.0377,-0.0376,-0.0375,0,0.041,0.0381,0.0381,0.0364,0.0312,0.0307,0.0284,0.0218,0.0198,0.0124,0.0104,-0.0018,-0.0055,-0.0162,-0.027,-0.0276,-0.0404,-0.0421,-0.0425,-0.0421,-0.0447,-0.0441,-0.05,-0.05,-0.05,-0.05,-0.05,0,0.04,0.0396,0.0411,0.0402,0.041,0.0361,0.0357,0.0309,0.0261,0.0222,0.0144,0.0073,-0.0061,-0.0156,-0.0262,-0.0357,-0.0389,-0.0425,-0.0434,-0.0447,-0.0441,-0.045,-0.0444,-0.0501,-0.05,-0.05,-0.05,0,0.0406,0.0412,0.0414,0.0409,0.0425,0.0438,0.0442,0.042,0.0385,0.0333,0.0322,0.0167,0.0032,-0.0085,-0.0258,-0.0314,-0.0427,-0.0447,-0.0424,-0.0431,-0.0411,-0.0405,-0.0452,-0.0451,-0.045,-0.0449,-0.0449,0,0.0398,0.0408,0.0451,0.0485,0.05,0.0531,0.0539,0.05,0.0468,0.0357,0.0312,0.0202,0.0085,-0.0112,-0.0249,-0.0389,-0.0413,-0.043,-0.0452,-0.0407,-0.0411,-0.0406,-0.0402,-0.0447,-0.0447,-0.0447,-0.0446,0,0.0374,0.0411,0.0422,0.0517,0.056,0.0572,0.058,0.0561,0.0475,0.0475,0.0301,0.0184,0.0041,-0.0135,-0.0205,-0.0332,-0.0406,-0.0421,-0.0424,-0.0445,-0.0401,-0.0405,-0.0402,-0.0443,-0.0444,-0.0444,-0.0444,0,0.0382,0.039,0.0438,0.0514,0.0588,0.0576,0.0566,0.0506,0.047,0.0358,0.0285,0.0122,0.0034,-0.0108,-0.022,-0.0285,-0.0312,-0.0327,-0.0336,-0.0341,-0.0303,-0.0231,-0.023,0,0,0,0,0,0.0378,0.038,0.0428,0.0475,0.0554,0.0594,0.0569,0.0534,0.0474,0.0368,0.0332,0.0183,0.0011,-0.01,-0.0158,-0.0204,-0.0318,-0.0272,-0.0338,-0.0425,-0.0429,-0.04,0,0,0,0,0,0,0.0363,0.0408,0.0402,0.0449,0.0504,0.0534,0.0526,0.0463,0.0387,0.0336,0.0229,0.0217,0.0035,0.0071,-0.0139,-0.0164,-0.0207,-0.034,-0.0341,-0.0423,-0.0426,-0.0429,-0.0401,0,0,0,0,0]}]]